CPA369 ZSPD-VHHH

Flight info

Callsign CPA369
Flight time N/A
Altitude 40100
Route HSN81D HSN W13 BEGMO M503 TOLAK/N0488F401 M503 LELIM/N0521F300 V591 ABBEY
Aircraft A359/H-SDE2E3GHIJ1J3J4J5LM1ORWXY/LB1D1

Departure

Time 2026-05-06 09:37
Airport Shanghai Pudong International Airport (ZSPD)

Arrival

Time N/A
Airport Hong Kong International Airport (VHHH)
Time Latitude Longitude Altitude Speed Heading
2026-05-06 09:06 31.15571 121.80657 29 ft 0 kts 252°
2026-05-06 09:27 31.15572 121.80660 28 ft 2 kts 251°
2026-05-06 09:27 31.15577 121.80678 27 ft 2 kts 252°
2026-05-06 09:27 31.15582 121.80697 28 ft 2 kts 252°
2026-05-06 09:27 31.15587 121.80715 28 ft 2 kts 273°
2026-05-06 09:28 31.15583 121.80734 26 ft 2 kts 296°
2026-05-06 09:28 31.15574 121.80750 27 ft 2 kts 316°
2026-05-06 09:28 31.15560 121.80760 27 ft 2 kts 343°
2026-05-06 09:28 31.15544 121.80766 28 ft 2 kts 342°
2026-05-06 09:29 31.15535 121.80769 28 ft 0 kts 342°
2026-05-06 09:32 31.15562 121.80759 27 ft 10 kts 342°
2026-05-06 09:33 31.15649 121.80726 29 ft 15 kts 342°
2026-05-06 09:33 31.15722 121.80700 29 ft 8 kts 350°
2026-05-06 09:33 31.15760 121.80734 29 ft 7 kts 68°
2026-05-06 09:33 31.15779 121.80800 29 ft 10 kts 71°
2026-05-06 09:34 31.15803 121.80884 29 ft 12 kts 72°
2026-05-06 09:34 31.15827 121.80974 29 ft 10 kts 72°
2026-05-06 09:34 31.15843 121.81032 28 ft 0 kts 72°
2026-05-06 09:36 31.15849 121.81052 28 ft 8 kts 72°
2026-05-06 09:36 31.15871 121.81134 28 ft 11 kts 76°
2026-05-06 09:36 31.15833 121.81200 28 ft 11 kts 148°
2026-05-06 09:36 31.15752 121.81236 28 ft 22 kts 162°
2026-05-06 09:37 31.15409 121.81366 28 ft 86 kts 162°
2026-05-06 09:37 31.14640 121.81656 27 ft 145 kts 162°
2026-05-06 09:37 31.13575 121.82056 459 ft 160 kts 161°
2026-05-06 09:37 31.12545 121.82455 1410 ft 152 kts 162°
2026-05-06 09:38 31.11577 121.82986 2045 ft 158 kts 149°
2026-05-06 09:38 31.10651 121.83704 2455 ft 165 kts 146°
2026-05-06 09:38 31.09715 121.84446 2987 ft 165 kts 147°
2026-05-06 09:38 31.08726 121.85203 3358 ft 179 kts 148°
2026-05-06 09:39 31.07610 121.86025 3586 ft 200 kts 149°
2026-05-06 09:39 31.06372 121.86927 3856 ft 219 kts 149°
2026-05-06 09:39 31.05027 121.87912 4151 ft 237 kts 149°
2026-05-06 09:39 31.03580 121.88966 4482 ft 252 kts 149°
2026-05-06 09:40 31.02065 121.90069 4831 ft 262 kts 150°
2026-05-06 09:40 31.00589 121.91336 4923 ft 265 kts 141°
2026-05-06 09:40 30.97856 121.94233 4928 ft 266 kts 139°
2026-05-06 09:41 30.96491 121.95691 4929 ft 266 kts 139°
2026-05-06 09:41 30.95130 121.97148 4928 ft 266 kts 139°
2026-05-06 09:41 30.93964 121.98821 4927 ft 269 kts 120°
2026-05-06 09:41 30.93496 122.00921 4963 ft 272 kts 92°
2026-05-06 09:42 30.93849 122.03102 5211 ft 278 kts 74°
2026-05-06 09:42 30.94466 122.05255 5784 ft 281 kts 72°
2026-05-06 09:42 30.95092 122.07418 6377 ft 283 kts 72°
2026-05-06 09:42 30.95715 122.09604 6928 ft 286 kts 72°
2026-05-06 09:43 30.96338 122.11819 7475 ft 289 kts 72°
2026-05-06 09:43 30.96935 122.13953 7999 ft 292 kts 72°
2026-05-06 09:43 30.97558 122.16187 8547 ft 296 kts 72°
2026-05-06 09:43 30.98203 122.18506 9084 ft 299 kts 71°
2026-05-06 09:44 30.98780 122.20823 9610 ft 304 kts 78°
2026-05-06 09:44 30.98763 122.23278 10123 ft 307 kts 104°
2026-05-06 09:44 30.97801 122.25525 10361 ft 318 kts 133°
2026-05-06 09:44 30.95993 122.27035 10546 ft 327 kts 160°
2026-05-06 09:45 30.93751 122.27626 10766 ft 337 kts 172°
2026-05-06 09:45 30.91428 122.28266 10965 ft 349 kts 166°
2026-05-06 09:45 30.89056 122.29071 11177 ft 361 kts 165°
2026-05-06 09:45 30.86621 122.29938 11365 ft 371 kts 164°
2026-05-06 09:46 30.84136 122.30837 11664 ft 376 kts 164°
2026-05-06 09:46 30.81625 122.31751 12034 ft 379 kts 164°
2026-05-06 09:46 30.79098 122.32675 12417 ft 382 kts 164°
2026-05-06 09:46 30.76558 122.33606 12789 ft 384 kts 164°
2026-05-06 09:47 30.74000 122.34543 13158 ft 387 kts 164°
2026-05-06 09:47 30.71424 122.35486 13526 ft 389 kts 164°
2026-05-06 09:47 30.68838 122.36432 13889 ft 391 kts 164°
2026-05-06 09:47 30.66235 122.37383 14197 ft 393 kts 164°
2026-05-06 09:48 30.63615 122.38341 14506 ft 396 kts 164°
2026-05-06 09:48 30.60978 122.39296 14821 ft 398 kts 165°
2026-05-06 09:48 30.58267 122.39945 15127 ft 398 kts 176°
2026-05-06 09:48 30.55497 122.39972 15449 ft 399 kts 184°
2026-05-06 09:49 30.52719 122.39807 15758 ft 401 kts 185°
2026-05-06 09:49 30.49923 122.39626 16088 ft 404 kts 185°
2026-05-06 09:49 30.47109 122.39451 16407 ft 406 kts 185°
2026-05-06 09:49 30.44280 122.39280 16730 ft 409 kts 185°
2026-05-06 09:50 30.41435 122.39112 17060 ft 411 kts 185°
2026-05-06 09:50 30.38569 122.38945 17380 ft 413 kts 185°
2026-05-06 09:50 30.35732 122.38780 17691 ft 415 kts 185°
2026-05-06 09:50 30.32839 122.38612 17999 ft 418 kts 185°
2026-05-06 09:51 30.29924 122.38444 18304 ft 420 kts 185°
2026-05-06 09:51 30.26997 122.38275 18570 ft 422 kts 185°
2026-05-06 09:51 30.24058 122.38106 18851 ft 424 kts 185°
2026-05-06 09:51 30.21103 122.37936 19124 ft 426 kts 185°
2026-05-06 09:52 30.18133 122.37765 19390 ft 428 kts 185°
2026-05-06 09:52 30.15149 122.37593 19653 ft 430 kts 185°
2026-05-06 09:52 30.12150 122.37421 19916 ft 432 kts 185°
2026-05-06 09:52 30.09144 122.37249 20179 ft 434 kts 185°
2026-05-06 09:53 30.06116 122.37075 20444 ft 436 kts 185°
2026-05-06 09:53 30.03081 122.36901 20700 ft 438 kts 185°
2026-05-06 09:53 30.00029 122.36726 20953 ft 440 kts 185°
2026-05-06 09:53 29.96970 122.36551 21204 ft 442 kts 185°
2026-05-06 09:54 29.93890 122.36446 21448 ft 445 kts 181°
2026-05-06 09:54 29.90792 122.36805 21690 ft 449 kts 174°
2026-05-06 09:54 29.87705 122.37418 21930 ft 452 kts 171°
2026-05-06 09:54 29.84617 122.38147 22176 ft 454 kts 170°
2026-05-06 09:55 29.81523 122.38921 22405 ft 456 kts 170°
2026-05-06 09:55 29.78415 122.39703 22635 ft 458 kts 170°
2026-05-06 09:55 29.75298 122.40472 22857 ft 460 kts 171°
2026-05-06 09:55 29.72156 122.41229 23079 ft 462 kts 171°
2026-05-06 09:56 29.69006 122.41975 23308 ft 463 kts 171°
2026-05-06 09:56 29.65840 122.42716 23525 ft 465 kts 171°
2026-05-06 09:56 29.62662 122.43454 23708 ft 467 kts 171°
2026-05-06 09:56 29.59470 122.44194 23889 ft 469 kts 171°
2026-05-06 09:57 29.56269 122.44935 24071 ft 470 kts 171°
2026-05-06 09:57 29.53053 122.45681 24251 ft 472 kts 171°
2026-05-06 09:57 29.50920 122.46175 24371 ft 473 kts 171°
2026-05-06 09:57 29.47691 122.46924 24540 ft 475 kts 171°
2026-05-06 09:58 29.44446 122.47676 24727 ft 476 kts 171°
2026-05-06 09:58 29.41193 122.48430 24900 ft 478 kts 171°
2026-05-06 09:58 29.37931 122.49186 25068 ft 480 kts 171°
2026-05-06 09:58 29.33585 122.50191 25296 ft 482 kts 171°
2026-05-06 09:59 29.31366 122.50705 25411 ft 483 kts 171°
2026-05-06 09:59 29.28064 122.51468 25601 ft 484 kts 171°
2026-05-06 09:59 29.24744 122.52106 25770 ft 484 kts 177°
2026-05-06 09:59 29.21391 122.52203 25952 ft 481 kts 187°
2026-05-06 10:00 29.18145 122.51643 26120 ft 477 kts 198°
2026-05-06 10:00 29.14988 122.50381 26310 ft 473 kts 207°
2026-05-06 10:00 29.11052 122.48247 26555 ft 473 kts 211°
2026-05-06 10:00 29.09112 122.47104 26691 ft 474 kts 212°
2026-05-06 10:01 29.06197 122.45341 26886 ft 475 kts 212°
2026-05-06 10:01 29.03277 122.43562 27086 ft 476 kts 212°
2026-05-06 10:01 29.00347 122.41789 27292 ft 478 kts 212°
2026-05-06 10:01 28.97395 122.40022 27493 ft 479 kts 212°
2026-05-06 10:02 28.94433 122.38265 27713 ft 481 kts 212°
2026-05-06 10:02 28.91452 122.36508 27902 ft 483 kts 211°
2026-05-06 10:02 28.88462 122.34753 28112 ft 484 kts 211°
2026-05-06 10:02 28.85460 122.32994 28321 ft 486 kts 211°
2026-05-06 10:03 28.82445 122.31228 28534 ft 488 kts 211°
2026-05-06 10:03 28.79424 122.29460 28754 ft 489 kts 211°
2026-05-06 10:03 28.76391 122.27685 28981 ft 491 kts 211°
2026-05-06 10:03 28.73348 122.25905 29195 ft 492 kts 212°
2026-05-06 10:04 28.70299 122.24123 29435 ft 494 kts 212°
2026-05-06 10:04 28.67240 122.22335 29644 ft 495 kts 212°
2026-05-06 10:04 28.64169 122.20541 29883 ft 497 kts 212°
2026-05-06 10:04 28.61087 122.18743 30084 ft 498 kts 212°
2026-05-06 10:05 28.57995 122.16940 30321 ft 498 kts 211°
2026-05-06 10:05 28.54905 122.15141 30507 ft 500 kts 211°
2026-05-06 10:05 28.51810 122.13338 30724 ft 501 kts 211°
2026-05-06 10:05 28.48704 122.11531 30961 ft 501 kts 211°
2026-05-06 10:06 28.45595 122.09722 31220 ft 502 kts 211°
2026-05-06 10:06 28.42487 122.07915 31449 ft 502 kts 211°
2026-05-06 10:06 28.39373 122.06107 31658 ft 503 kts 211°
2026-05-06 10:06 28.36251 122.04294 31860 ft 504 kts 211°
2026-05-06 10:07 28.33124 122.02480 32075 ft 505 kts 211°
2026-05-06 10:07 28.29998 122.00668 32308 ft 505 kts 211°
2026-05-06 10:07 28.26915 121.98882 32579 ft 504 kts 211°
2026-05-06 10:07 28.23753 121.97052 32864 ft 503 kts 211°
2026-05-06 10:08 28.20641 121.95252 33175 ft 501 kts 211°
2026-05-06 10:08 28.17580 121.93484 33509 ft 499 kts 211°
2026-05-06 10:08 28.14488 121.91698 33803 ft 499 kts 211°
2026-05-06 10:08 28.11401 121.89914 34078 ft 498 kts 211°
2026-05-06 10:09 28.08316 121.88134 34369 ft 497 kts 211°
2026-05-06 10:09 28.05237 121.86359 34658 ft 496 kts 211°
2026-05-06 10:09 28.02164 121.84587 34901 ft 496 kts 211°
2026-05-06 10:09 27.99089 121.82815 35147 ft 495 kts 211°
2026-05-06 10:10 27.96044 121.81000 35428 ft 494 kts 213°
2026-05-06 10:10 27.93038 121.79137 35745 ft 492 kts 213°
2026-05-06 10:10 27.90053 121.77260 35994 ft 491 kts 214°
2026-05-06 10:10 27.87064 121.75378 36261 ft 491 kts 213°
2026-05-06 10:11 27.84077 121.73507 36532 ft 490 kts 213°
2026-05-06 10:11 27.81095 121.71650 36828 ft 489 kts 213°
2026-05-06 10:11 27.78114 121.69803 37101 ft 489 kts 213°
2026-05-06 10:11 27.75132 121.67961 37361 ft 488 kts 213°
2026-05-06 10:12 27.72152 121.66125 37650 ft 487 kts 213°
2026-05-06 10:12 27.69178 121.64295 37951 ft 486 kts 213°
2026-05-06 10:12 27.66216 121.62473 38219 ft 485 kts 213°
2026-05-06 10:12 27.63251 121.60650 38485 ft 485 kts 214°
2026-05-06 10:13 27.60291 121.58830 38745 ft 484 kts 214°
2026-05-06 10:13 27.57339 121.57019 38980 ft 482 kts 213°
2026-05-06 10:13 27.54392 121.55218 39189 ft 482 kts 214°
2026-05-06 10:13 27.51486 121.53443 39356 ft 482 kts 214°
2026-05-06 10:14 27.48540 121.51644 39555 ft 481 kts 214°
2026-05-06 10:14 27.45605 121.49854 39786 ft 480 kts 214°
2026-05-06 10:14 27.42671 121.48064 39949 ft 479 kts 214°
2026-05-06 10:14 27.39736 121.46276 40068 ft 480 kts 214°
2026-05-06 10:15 27.33866 121.42701 40088 ft 479 kts 214°
2026-05-06 10:15 27.28010 121.39140 40087 ft 479 kts 214°
2026-05-06 10:16 27.22152 121.35583 40088 ft 478 kts 214°
2026-05-06 10:16 27.16309 121.32036 40086 ft 477 kts 214°
2026-05-06 10:17 27.10468 121.28495 40087 ft 477 kts 214°
2026-05-06 10:17 27.04633 121.24963 40086 ft 476 kts 214°
2026-05-06 10:18 26.98803 121.21438 40092 ft 475 kts 214°
2026-05-06 10:18 26.92984 121.17924 40088 ft 475 kts 214°
2026-05-06 10:19 26.87171 121.14417 40090 ft 474 kts 214°
2026-05-06 10:19 26.81366 121.10920 40087 ft 474 kts 214°
2026-05-06 10:20 26.75566 121.07429 40094 ft 473 kts 214°
2026-05-06 10:20 26.69772 121.03956 40087 ft 472 kts 214°
2026-05-06 10:21 26.63992 121.00468 40087 ft 472 kts 214°
2026-05-06 10:21 26.58221 120.96990 40082 ft 471 kts 214°
2026-05-06 10:22 26.52448 120.93521 40089 ft 470 kts 214°
2026-05-06 10:22 26.46686 120.90064 40086 ft 470 kts 214°
2026-05-06 10:23 26.40927 120.86614 40089 ft 469 kts 214°
2026-05-06 10:23 26.35214 120.83195 40089 ft 469 kts 214°
2026-05-06 10:24 26.29464 120.79757 40087 ft 468 kts 214°
2026-05-06 10:24 26.23720 120.76327 40090 ft 468 kts 214°
2026-05-06 10:25 26.17988 120.72908 40082 ft 467 kts 214°
2026-05-06 10:25 26.12251 120.69489 40082 ft 467 kts 214°
2026-05-06 10:26 26.06524 120.66081 40085 ft 466 kts 214°
2026-05-06 10:26 26.00802 120.62679 40084 ft 466 kts 214°
2026-05-06 10:27 25.95084 120.59284 40085 ft 466 kts 214°
2026-05-06 10:27 25.89371 120.55895 40082 ft 465 kts 214°
2026-05-06 10:28 25.83660 120.52511 40081 ft 465 kts 214°
2026-05-06 10:28 25.77952 120.49133 40081 ft 465 kts 214°
2026-05-06 10:29 25.72252 120.45763 40081 ft 464 kts 214°
2026-05-06 10:29 25.66555 120.42399 40081 ft 464 kts 214°
2026-05-06 10:30 25.61092 120.38770 40080 ft 457 kts 221°
2026-05-06 10:30 25.55967 120.34618 40078 ft 456 kts 222°
2026-05-06 10:31 25.50900 120.30388 40077 ft 456 kts 222°
2026-05-06 10:31 25.45839 120.26160 40079 ft 456 kts 222°
2026-05-06 10:32 25.40772 120.21946 40074 ft 455 kts 222°
2026-05-06 10:32 25.35706 120.17747 40068 ft 455 kts 222°
2026-05-06 10:33 25.30637 120.13552 40076 ft 455 kts 222°
2026-05-06 10:33 25.25568 120.09361 40079 ft 455 kts 222°
2026-05-06 10:34 25.20504 120.05177 40078 ft 454 kts 222°
2026-05-06 10:34 25.15442 120.01000 40068 ft 454 kts 222°
2026-05-06 10:35 25.10375 119.96824 40074 ft 454 kts 222°
2026-05-06 10:35 25.05317 119.92658 40072 ft 454 kts 222°
2026-05-06 10:36 25.00392 119.88407 40072 ft 449 kts 228°
2026-05-06 10:36 24.96159 119.83407 40066 ft 445 kts 233°
2026-05-06 10:37 24.92118 119.78235 40071 ft 445 kts 234°
2026-05-06 10:37 24.88108 119.73050 40068 ft 445 kts 234°
2026-05-06 10:38 24.84086 119.67875 40068 ft 445 kts 233°
2026-05-06 10:38 24.80052 119.62711 40070 ft 445 kts 233°
2026-05-06 10:39 24.76011 119.57550 40069 ft 445 kts 233°
2026-05-06 10:39 24.71973 119.52398 40067 ft 445 kts 233°
2026-05-06 10:40 24.67934 119.47248 40064 ft 444 kts 233°
2026-05-06 10:40 24.63895 119.42105 40065 ft 445 kts 233°
2026-05-06 10:41 24.59852 119.36961 40066 ft 444 kts 233°
2026-05-06 10:41 24.55812 119.31828 40066 ft 444 kts 233°
2026-05-06 10:42 24.51768 119.26694 40065 ft 444 kts 233°
2026-05-06 10:42 24.47725 119.21567 40066 ft 444 kts 233°
2026-05-06 10:43 24.43708 119.16478 40064 ft 444 kts 233°
2026-05-06 10:44 24.37639 119.08801 40061 ft 444 kts 233°
2026-05-06 10:44 24.33592 119.03688 40064 ft 444 kts 233°
2026-05-06 10:45 24.29544 118.98579 40058 ft 444 kts 233°
2026-05-06 10:45 24.25496 118.93477 40060 ft 444 kts 233°
2026-05-06 10:46 24.21448 118.88379 40056 ft 443 kts 233°
2026-05-06 10:46 24.17398 118.83284 40057 ft 443 kts 233°
2026-05-06 10:47 24.13343 118.78188 40058 ft 443 kts 233°
2026-05-06 10:47 24.09291 118.73102 40058 ft 443 kts 233°
2026-05-06 10:48 24.05233 118.68013 40058 ft 443 kts 233°
2026-05-06 10:48 24.01180 118.62935 40060 ft 443 kts 233°
2026-05-06 10:49 23.97808 118.58715 40065 ft 443 kts 233°
2026-05-06 10:49 23.93755 118.53647 40063 ft 443 kts 233°
2026-05-06 10:50 23.89700 118.48582 40063 ft 443 kts 233°
2026-05-06 10:50 23.85645 118.43524 40059 ft 442 kts 233°
2026-05-06 10:51 23.81568 118.38489 40067 ft 443 kts 232°
2026-05-06 10:51 23.77480 118.33463 40058 ft 442 kts 232°
2026-05-06 10:52 23.73391 118.28438 40061 ft 443 kts 232°
2026-05-06 10:52 23.69301 118.23412 40055 ft 443 kts 233°
2026-05-06 10:53 23.65210 118.18387 40060 ft 443 kts 232°
2026-05-06 10:53 23.61118 118.13367 40063 ft 443 kts 232°
2026-05-06 10:54 23.57021 118.08346 40059 ft 443 kts 232°
2026-05-06 10:54 23.52926 118.03333 40058 ft 443 kts 232°
2026-05-06 10:55 23.48850 117.98347 40057 ft 443 kts 232°